Content
SEND FEEDBACK

Daily
Averages
Monthly
Summary
Mexico

PUEBLA - JARDINES DE SAN MANUEL, PUEBLA


Home > North America > Mexico > Puebla
Elevation: 6962 feet     Latitude: 19 00N     Longitude: 098 11W

WEATHER
 
SELECT A DAY
Number of Records: 124,117;   Date Range: 1/1/95 - 10/29/14
 
SHARE

PRINT THIS DATA

[ ← Previous Day ]
WEATHER ALMANAC - MARCH 12, 2013
[ Next Day → ]
[ °C ]   °F
Weather ElementAverageHighLow
Temperature63.8 °F78 °F (2:45 pm)46.4 °F (5:40 am)
Dewpoint40.8 °F50 °F (5:45 am)33 °F (11:50 pm)
Humidity44.9 %93 % (5:40 am)15 % (2:45 pm)
Barometer30.13 in30.34 in (10:41 pm)29.67 in (5:50 pm)
Wind Speed8.6 mph25.3 mph (2:45 pm)
Wind Gust27.6 mph (1:45 pm)
Weather ElementAverage
Visibility8.1 mi
Wind DirectionSSE (154.8 °)

Weather ElementTotal
Precipitation---
Heating Degree Days2.8 (Base 65)
Growing Degree Days12.2 (Base 50)
Averaged from 25 records on March 12, 2013
WEATHER CONDITIONS BREAKOUT
WIND DIRECTION BREAKOUT
WEATHER BY HOUR - MARCH 12, 2013
[ °C ]   °F
Local TimeTemperatureDewpointHumidityBarometerVisibilityWind DirectionWind SpeedGust SpeedPrecipitationEventsConditions
5:02 AM48.2 °F44.6 °F87 %30.25 in8.0 miWSW (250°)2.3 mphMostly Cloudy
5:40 AM46.4 °F44.6 °F93 %30.25 in8.0 miCalmMostly Cloudy
5:45 AM53.0 °F50.0 °F87 %29.82 in3.0 miNE (40°)2.2 mph
6:43 AM48.2 °F41.0 °F76 %30.27 in8.0 miCalmMostly Cloudy
7:45 AM53.6 °F42.8 °F67 %30.30 in8.0 miNNW (330°)3.5 mphMostly Cloudy
8:40 AM55.4 °F44.6 °F67 %30.32 in6.0 miCalmMostly Cloudy
8:50 AM58.0 °F49.0 °F64 %29.95 in3.0 miSSE (150°)2.2 mphHaze
9:45 AM62.6 °F46.4 °F55 %30.33 in6.0 miSSE (150°)8.1 mphMostly Cloudy
10:42 AM66.2 °F46.4 °F49 %30.32 in8.0 miSE (140°)9.2 mphMostly Cloudy
11:44 AM69.8 °F46.4 °F43 %30.30 in8.0 miSouth (170°)9.2 mphMostly Cloudy
11:50 AM70.0 °F46.0 °F31 %29.93 in12.0 miESE (120°)4.5 mphClear
1:45 PM75.2 °F41.0 °F29 %30.22 in8.0 miSouth (170°)11.5 mph27.6 mphMostly Cloudy
2:45 PM75.2 °F37.4 °F25 %30.19 in10.0 miSouth (180°)25.3 mphMostly Cloudy
2:45 PM78.0 °F39.0 °F15 %29.75 in12.0 miSSE (150°)11.2 mphClear
3:40 PM75.2 °F35.6 °F24 %30.16 in10.0 miSSE (150°)18.4 mphMostly Cloudy
4:42 PM73.4 °F35.6 °F25 %30.16 in10.0 miSouth (170°)17.3 mphMostly Cloudy
5:43 PM69.8 °F37.4 °F31 %30.17 in10.0 miSouth (190°)25.3 mphMostly Cloudy
5:50 PM75.0 °F36.0 °F15 %29.67 in9.0 miSSE (150°)11.2 mphHaze
6:40 PM68.0 °F37.4 °F33 %30.19 in10.0 miSouth (180°)16.1 mphMostly Cloudy
7:44 PM66.2 °F37.4 °F35 %30.23 in10.0 miSSW (200°)11.5 mphMostly Cloudy
8:41 PM62.6 °F37.4 °F39 %30.27 in10.0 miNorth (10°)9.2 mphMostly Cloudy
8:50 PM68.0 °F37.0 °F21 %29.67 in3.0 miCalmMostly Cloudy
9:41 PM59.0 °F37.4 °F45 %30.32 in10.0 miNW (320°)6.9 mphScattered Clouds
10:41 PM59.0 °F35.6 °F42 %30.34 in10.0 miNNW (340°)9.2 mphScattered Clouds
11:50 PM60.0 °F33.0 °F25 %29.75 in3.0 miCalmScattered Clouds
Hourly data recorded from MMPB, located miles away from Puebla - Jardines de San Manuel, Puebla







STORIES FROM OUR PARTNERS